Weather History for KETH - February, 2013

Change the Weather History Date:

Tuesday, February 5, 2013

  Actual Average (K8D3) Record (K8D3)
Temperature  
Mean Temperature 20 °F 15 °F  
Max Temperature 32 °F 25 °F 60 °F (1963)
Min Temperature 8 °F 5 °F -29 °F (1936)
Degree Days  
Heating Degree Days 45 50  
Month to date heating degree days 252  
Since 1 July heating degree days 5198  
Cooling Degree Days 0 0  
Month to date cooling degree days 0  
Year to date cooling degree days 0  
Moisture  
Dew Point 13 °F    
Average Humidity 85    
Maximum Humidity 100    
Minimum Humidity 73    
Precipitation  
Precipitation 0.00 in 0.01 in 0.35 in (2011)
Month to date precipitation 0.05  
Year to date precipitation 0.48  
Snow  
Snow 0.00 in - - ()
Month to date snowfall  
Since 1 July snowfall  
Snow Depth -    
Sea Level Pressure  
Sea Level Pressure 29.92 in    
Wind  
Wind Speed 10 mph (NW)    
Max Wind Speed 20 mph    
Max Gust Speed 26 mph    
Visibility 9 miles    
Events Snow    
T = Trace of Precipitation, MM = Missing Value Source: NWS Daily Summary

Daily Weather History Graph

Daily Weather History Graph

Search for Another Location

Airport or City:

Trip Planner

Search our weather history database for the weather conditions in past years. The results will help you decide how hot, cold, wet, or windy it might be!

Date:

Astronomy

Feb. 05, 2013 Rise Set
Actual Time 7:42 AM CST 5:38 PM CST
Civil Twilight 7:11 AM CST 6:09 PM CST
Nautical Twilight 6:35 AM CST 6:45 PM CST
Astronomical Twilight 6:01 AM CST 7:20 PM CST
Moon 3:31 AM CST (2/5) 12:51 PM CST (2/5)
Length of Visible Light 10h 58m
Length of Day
9h 56m
Waning Crescent, 26% of the Moon is Illuminated
Feb 5
Waning Crescent
Feb 10
New
Feb 17
First Quarter
Feb 25
Full
Mar 4
Last Quarter

Hourly Weather History & Observations

Time (CST) Temp. Windchill Dew Point Humidity Pressure Visibility Wind Dir Wind Speed Gust Speed Precip Events Conditions
12:14 AM 26.6 °F 16.8 °F 23.0 °F 86% 29.64 in 10.0 mi WSW 10.4 mph - N/A   Clear
12:34 AM 26.6 °F 18.2 °F 23.0 °F 86% 29.64 in 10.0 mi WSW 8.1 mph - N/A   Mostly Cloudy
12:55 AM 28.4 °F 18.0 °F 24.8 °F 86% 29.64 in 10.0 mi WSW 12.7 mph - N/A   Overcast
1:15 AM 28.4 °F 19.1 °F 24.8 °F 86% 29.64 in 10.0 mi SW 10.4 mph - N/A   Overcast
1:35 AM 28.4 °F 20.4 °F 26.6 °F 93% 29.66 in 10.0 mi West 8.1 mph - N/A Snow Snow
1:54 AM 30.2 °F 21.3 °F 26.6 °F 86% 29.65 in 0.2 mi WSW 10.4 mph - N/A Snow Snow
2:14 AM 30.2 °F 22.6 °F 28.4 °F 93% 29.66 in 1.8 mi West 8.1 mph - N/A Snow Light Snow
2:35 AM 30.2 °F 23.4 °F 30.2 °F 100% 29.66 in 2.0 mi West 6.9 mph - N/A Snow Light Snow
2:55 AM 32.0 °F 26.4 °F 30.2 °F 93% 29.66 in 10.0 mi West 5.8 mph - N/A Snow Light Snow
3:15 AM 32.0 °F 25.6 °F 30.2 °F 93% 29.66 in 7.0 mi West 6.9 mph - N/A Snow Light Snow
3:35 AM 32.0 °F 25.6 °F 28.4 °F 87% 29.66 in 7.0 mi WNW 6.9 mph - N/A Snow Light Snow
3:54 AM 32.0 °F 24.2 °F 30.2 °F 93% 29.67 in 7.0 mi WNW 9.2 mph - N/A   Overcast
4:14 AM 32.0 °F 24.2 °F 30.2 °F 93% 29.69 in 5.0 mi WNW 9.2 mph - N/A Snow Light Snow
4:35 AM 32.0 °F 24.2 °F 30.2 °F 93% 29.70 in 7.0 mi NW 9.2 mph - N/A Snow Light Snow
4:54 AM 32.0 °F 23.6 °F 30.2 °F 93% 29.71 in 7.0 mi WNW 10.4 mph - N/A   Overcast
5:15 AM 30.2 °F 21.9 °F 28.4 °F 93% 29.72 in 10.0 mi NW 9.2 mph - N/A   Overcast
5:34 AM 30.2 °F 18.9 °F 28.4 °F 93% 29.73 in 5.0 mi NNW 16.1 mph - N/A   Overcast
5:54 AM 30.2 °F 20.2 °F 28.4 °F 93% 29.74 in 3.0 mi NW 12.7 mph - N/A Snow Light Snow
6:15 AM 28.4 °F 19.1 °F 26.6 °F 93% 29.74 in 10.0 mi NW 10.4 mph - N/A Snow Light Snow
6:35 AM 28.4 °F 15.4 °F 26.6 °F 93% 29.76 in 10.0 mi NW 19.6 mph 23.0 mph N/A   Overcast
6:55 AM 23.0 °F 9.6 °F 21.2 °F 93% 29.78 in 7.0 mi NNW 16.1 mph 23.0 mph N/A   Overcast
7:15 AM 19.4 °F 4.1 °F 17.6 °F 93% 29.80 in 10.0 mi NNW 18.4 mph 26.5 mph N/A   Overcast
7:34 AM 17.6 °F 2.2 °F 15.8 °F 93% 29.82 in 7.0 mi NNW 17.3 mph 25.3 mph N/A   Overcast
7:54 AM 15.8 °F 1.4 °F 14.0 °F 93% 29.84 in 10.0 mi NNW 13.8 mph 23.0 mph N/A   Overcast
8:14 AM 15.8 °F -0.6 °F 12.2 °F 86% 29.86 in 10.0 mi NNW 18.4 mph 23.0 mph N/A   Overcast
8:55 AM 14.0 °F -3.4 °F 10.4 °F 86% 29.89 in 10.0 mi NNW 19.6 mph 24.2 mph N/A   Overcast
9:14 AM 14.0 °F -2.0 °F 10.4 °F 86% 29.91 in 10.0 mi NNW 16.1 mph 23.0 mph N/A   Overcast
9:34 AM 14.0 °F -2.0 °F 10.4 °F 86% 29.92 in 10.0 mi NNW 16.1 mph 23.0 mph N/A   Overcast
10:14 AM 14.0 °F -3.0 °F 8.6 °F 79% 29.95 in 10.0 mi NW 18.4 mph 25.3 mph N/A   Overcast
10:35 AM 12.2 °F -3.7 °F 8.6 °F 85% 29.96 in 10.0 mi NW 15.0 mph 24.2 mph N/A   Overcast
10:54 AM 12.2 °F -4.8 °F 8.6 °F 85% 29.97 in 7.0 mi NW 17.3 mph - N/A Snow Light Snow
11:15 AM 12.2 °F -4.3 °F 6.8 °F 79% 29.98 in 10.0 mi NW 16.1 mph 20.7 mph N/A   Overcast
11:34 AM 12.2 °F -4.3 °F 6.8 °F 79% 30.00 in 10.0 mi NNW 16.1 mph 21.9 mph N/A   Overcast
11:55 AM 12.2 °F -2.5 °F 6.8 °F 79% 30.01 in 10.0 mi NW 12.7 mph 21.9 mph N/A   Overcast
12:15 PM 12.2 °F -3.7 °F 6.8 °F 79% 30.02 in 10.0 mi NW 15.0 mph - N/A   Overcast
12:35 PM 10.4 °F -4.8 °F 6.8 °F 85% 30.02 in 10.0 mi WNW 12.7 mph 16.1 mph N/A   Overcast
12:55 PM 12.2 °F -2.5 °F 6.8 °F 79% 30.03 in 10.0 mi NW 12.7 mph - N/A   Scattered Clouds
1:15 PM 12.2 °F -2.5 °F 6.8 °F 79% 30.03 in 10.0 mi NW 12.7 mph - N/A   Clear
1:36 PM 10.4 °F -4.8 °F 6.8 °F 85% 30.03 in 10.0 mi NW 12.7 mph - N/A   Scattered Clouds
1:54 PM 10.4 °F -3.3 °F 5.0 °F 79% 30.04 in 10.0 mi NW 10.4 mph - N/A   Mostly Cloudy
2:15 PM 10.4 °F -3.3 °F 6.8 °F 85% 30.04 in 10.0 mi NW 10.4 mph - N/A   Overcast
2:35 PM 12.2 °F -1.0 °F 6.8 °F 79% 30.03 in 10.0 mi NW 10.4 mph - N/A   Scattered Clouds
2:55 PM 12.2 °F -0.2 °F 6.8 °F 79% 30.04 in 10.0 mi NW 9.2 mph - N/A   Clear
3:15 PM 12.2 °F -1.0 °F 6.8 °F 79% 30.04 in 10.0 mi NW 10.4 mph - N/A   Clear
3:34 PM 12.2 °F 0.7 °F 6.8 °F 79% 30.04 in 10.0 mi NW 8.1 mph - N/A   Clear
3:55 PM 10.4 °F -1.5 °F 5.0 °F 79% 30.05 in 10.0 mi WNW 8.1 mph - N/A   Clear
4:14 PM 10.4 °F 2.2 °F 3.2 °F 73% 30.06 in 10.0 mi WNW 4.6 mph - N/A   Clear
4:35 PM 8.6 °F -1.3 °F 3.2 °F 79% 30.06 in 10.0 mi NNW 5.8 mph - N/A   Clear
4:55 PM 8.6 °F 0.1 °F 3.2 °F 79% 30.06 in 10.0 mi NNW 4.6 mph - N/A   Clear
5:15 PM 8.6 °F 0.1 °F 3.2 °F 79% 30.06 in 10.0 mi NNW 4.6 mph - N/A   Mostly Cloudy
5:35 PM 8.6 °F 2.0 °F 3.2 °F 79% 30.06 in 10.0 mi NNW 3.5 mph - N/A   Overcast
5:55 PM 8.6 °F 0.1 °F 5.0 °F 85% 30.07 in 10.0 mi NNW 4.6 mph - N/A   Overcast
6:14 PM 8.6 °F - 5.0 °F 85% 30.07 in 10.0 mi Calm Calm - N/A   Overcast
6:34 PM 8.6 °F 2.0 °F 5.0 °F 85% 30.07 in 10.0 mi NNW 3.5 mph - N/A   Overcast
6:55 PM 10.4 °F - 5.0 °F 79% 30.07 in 10.0 mi Calm Calm - N/A   Overcast
7:14 PM 10.4 °F - 5.0 °F 79% 30.06 in 10.0 mi Calm Calm - N/A   Overcast
7:34 PM 10.4 °F - 5.0 °F 79% 30.07 in 10.0 mi Calm Calm - N/A   Overcast
7:54 PM 10.4 °F - 5.0 °F 79% 30.08 in 10.0 mi Calm Calm - N/A   Overcast
8:14 PM 10.4 °F - 5.0 °F 79% 30.07 in 10.0 mi Calm Calm - N/A   Overcast
8:34 PM 10.4 °F - 6.8 °F 85% 30.07 in 10.0 mi Calm Calm - N/A   Overcast
8:55 PM 10.4 °F - 5.0 °F 79% 30.07 in 10.0 mi Calm Calm - N/A   Overcast
9:14 PM 10.4 °F - 5.0 °F 79% 30.07 in 10.0 mi Calm Calm - N/A   Overcast
9:34 PM 10.4 °F - 5.0 °F 79% 30.06 in 10.0 mi Calm Calm - N/A   Overcast
9:55 PM 10.4 °F 4.0 °F 5.0 °F 79% 30.06 in 10.0 mi SE 3.5 mph - N/A   Overcast
10:15 PM 10.4 °F 4.0 °F 6.8 °F 85% 30.06 in 10.0 mi SE 3.5 mph - N/A   Overcast
10:35 PM 10.4 °F -0.4 °F 6.8 °F 85% 30.05 in 10.0 mi SE 6.9 mph - N/A   Overcast
10:55 PM 10.4 °F - 6.8 °F 85% 30.06 in 10.0 mi Calm Calm - N/A   Mostly Cloudy
11:15 PM 8.6 °F 2.0 °F 6.8 °F 92% 30.06 in 10.0 mi South 3.5 mph - N/A   Scattered Clouds
11:35 PM 8.6 °F -1.3 °F 5.0 °F 85% 30.07 in 10.0 mi South 5.8 mph - N/A   Clear
11:55 PM 8.6 °F 0.1 °F 5.0 °F 85% 30.07 in 10.0 mi SSE 4.6 mph - N/A   Clear